| time (UTC) | temp F | wind direction | speed MPH | gust MPH | rain 1hr in | rain 24hr in | rain mn in | humidity % | barometer mb |
| 20260903200105 | 67 | 0.0 | 0.0 | 0.00 | 0.00 | 0.00 | 79 | ||
| 20260903193034 | 67 | 0.0 | 0.0 | 0.00 | 0.00 | 0.00 | 76 | ||
| 20260903190105 | 68 | 0.0 | 0.0 | 0.00 | 0.00 | 0.00 | 73 | ||
| 20260903183035 | 69 | 0.0 | 0.0 | 0.00 | 0.00 | 0.00 | 71 | ||
| 20260903180107 | 71 | 149 | 0.0 | 2.0 | 0.00 | 0.00 | 0.00 | 65 | |
| 20260903173056 | 71 | 0.0 | 1.0 | 0.00 | 0.00 | 0.00 | 63 | ||
| 20260903170107 | 72 | 177 | 0.0 | 2.0 | 0.00 | 0.00 | 0.00 | 59 | |
| 20260903163037 | 73 | 174 | 1.0 | 7.0 | 0.00 | 0.00 | 0.00 | 56 | |
| 20260903160108 | 74 | 223 | 1.0 | 7.0 | 0.00 | 0.00 | 0.00 | 56 | |
| 20260903153039 | 73 | 155 | 1.0 | 3.0 | 0.00 | 0.00 | 0.00 | 57 | |
| 20260903150109 | 73 | 217 | 1.0 | 6.0 | 0.00 | 0.00 | 0.00 | 56 | |
| 20260903143039 | 73 | 245 | 2.0 | 16.0 | 0.00 | 0.00 | 0.00 | 55 | |
| 20260903140110 | 74 | 248 | 3.0 | 15.0 | 0.00 | 0.00 | 0.00 | 54 | |
| 20260903133040 | 75 | 265 | 3.0 | 14.0 | 0.00 | 0.00 | 0.00 | 53 | |
| 20260903130111 | 76 | 227 | 3.0 | 10.0 | 0.00 | 0.00 | 0.00 | 53 | |
| 20260903123041 | 74 | 229 | 3.0 | 9.0 | 0.00 | 0.00 | 0.00 | 54 | |
| 20260903120112 | 73 | 192 | 2.0 | 8.0 | 0.00 | 0.00 | 0.00 | 55 | |
| 20260903113042 | 73 | 180 | 2.0 | 9.0 | 0.00 | 0.00 | 0.00 | 55 | |
| 20260903110153 | 73 | 236 | 2.0 | 9.0 | 0.00 | 0.00 | 0.00 | 55 | |
| 20260903103043 | 72 | 190 | 2.0 | 10.0 | 0.00 | 0.00 | 0.00 | 56 | |
| 20260903100114 | 71 | 219 | 2.0 | 8.0 | 0.00 | 0.00 | 0.00 | 56 | |
| 20260903093104 | 71 | 193 | 2.0 | 11.0 | 0.00 | 0.00 | 0.00 | 55 | |
| 20260903090155 | 69 | 242 | 3.0 | 11.0 | 0.00 | 0.00 | 0.00 | 59 | |
| 20260903083105 | 69 | 229 | 2.0 | 10.0 | 0.00 | 0.00 | 0.00 | 63 | |
| 20260903080115 | 64 | 120 | 0.0 | 1.0 | 0.00 | 0.00 | 0.00 | 77 | |
| 20260903073045 | 60 | 129 | 0.0 | 2.0 | 0.00 | 0.00 | 0.00 | 86 | |
| 20260903070016 | 58 | 123 | 0.0 | 2.0 | 0.00 | 0.00 | 0.00 | 90 | |
| 20260903063047 | 55 | 114 | 0.0 | 2.0 | 0.00 | 0.00 | 0.00 | 93 | |
| 20260903060017 | 54 | 127 | 0.0 | 2.0 | 0.00 | 0.00 | 0.00 | 95 | |
| 20260903053047 | 53 | 135 | 1.0 | 3.0 | 0.00 | 0.00 | 0.00 | 96 | |
| 20260903050017 | 52 | 125 | 0.0 | 2.0 | 0.00 | 0.00 | 0.00 | 96 | |
| 20260903043048 | 53 | 134 | 0.0 | 2.0 | 0.00 | 0.00 | 0.00 | 96 | |
| 20260903040018 | 53 | 135 | 0.0 | 2.0 | 0.00 | 0.00 | 0.00 | 96 | |
| 20260903033049 | 54 | 134 | 0.0 | 2.0 | 0.00 | 0.00 | 0.00 | 96 | |
| 20260903030020 | 54 | 136 | 0.0 | 2.0 | 0.00 | 0.00 | 0.00 | 96 | |
| 20260903023050 | 54 | 0.0 | 0.0 | 0.00 | 0.00 | 0.00 | 95 | ||
| 20260903020022 | 55 | 0.0 | 0.0 | 0.00 | 0.00 | 0.00 | 94 | ||
| 20260903013051 | 56 | 0.0 | 0.0 | 0.00 | 0.00 | 0.00 | 92 | ||
| 20260903010021 | 56 | 0.0 | 0.0 | 0.00 | 0.00 | 0.00 | 92 | ||
| 20260903003052 | 58 | 0.0 | 0.0 | 0.00 | 0.00 | 0.00 | 90 | ||
| 20260903000022 | 60 | 0.0 | 0.0 | 0.00 | 0.00 | 0.00 | 87 | ||
| 20260902233053 | 61 | 0.0 | 1.0 | 0.00 | 0.00 | 0.00 | 85 | ||
| 20260902230023 | 61 | 142 | 0.0 | 1.0 | 0.00 | 0.00 | 0.00 | 84 | |
| 20260902223054 | 61 | 144 | 0.0 | 1.0 | 0.00 | 0.00 | 0.00 | 83 | |
| 20260902220024 | 61 | 126 | 0.0 | 1.0 | 0.00 | 0.00 | 0.00 | 85 | |
| 20260902213055 | 62 | 150 | 0.0 | 1.0 | 0.00 | 0.00 | 0.00 | 82 | |
| 20260902210025 | 63 | 155 | 0.0 | 2.0 | 0.00 | 0.00 | 0.00 | 80 | |
| 20260902203116 | 63 | 140 | 0.0 | 1.0 | 0.00 | 0.00 | 0.00 | 79 |